Location: Corbie
(49.1622°N, 1.5478°E)
Time: 11:11:13
(UTC+00:00)

Daily predictions for brighter satellites

Satellite Brightness Start Highest point End
(mag) Time Altitude Azimuth Time Altitude Azimuth Time Altitude Azimuth
SAR-Lupe-2 3.5 18:41:20 10° SSE 18:44:53 72° ENE 18:48:28 10° N
Meteor PRIRODA 3.4 18:46:26 10° SSE 18:49:40 56° ENE 18:52:54 10° N
ATLAS 2AS CENTAUR R/B 4.3 18:43:09 10° W 18:49:40 35° NNW 18:55:58 10° NE
Cosmos 1125 Rocket 4.2 18:45:29 10° N 18:50:15 35° ENE 18:55:01 10° ESE
Cosmos 1842 3.5 18:48:25 10° N 18:51:52 41° ENE 18:55:18 10° SSE
USA 59 Rocket 0.1 18:49:34 10° NW 18:53:19 85° SW 18:58:32 10° SE
Cosmos 1536 3.8 18:51:10 10° SE 18:54:16 24° E 18:57:22 10° NE
Okean 3 Rocket 4.4 18:50:50 10° SSE 18:54:42 29° E 18:58:33 10° NNE
Cosmos 2061 Rocket 4.3 18:49:00 10° SSW 18:55:27 82° W 19:01:56 10° N
COSMOS 2428 2.7 18:50:00 10° SSW 18:55:38 64° ESE 19:01:19 10° NNE
Cosmos 1707 3.1 18:52:20 10° N 18:55:41 37° ENE 18:59:00 10° SE
Cosmos 1515 Rocket 4.3 18:51:55 10° N 18:55:52 33° ENE 18:59:49 10° SE
Cosmos 1818 3.8 18:55:17 10° SW 19:00:45 77° NW 19:06:16 10° NE
Okean O Rocket 2.7 18:57:44 10° ESE 19:01:25 26° ENE 19:05:06 10° N
Cosmos 2278 Rocket 2.2 19:00:39 10° NNW 19:06:21 71° ENE 19:11:59 10° SE
USA 306 2.2 19:04:26 10° WSW 19:07:29 86° NNW 19:11:08 10° ENE
CZ-4B DEB 4.2 19:03:40 10° SSE 19:09:12 86° ENE 19:14:44 10° NNW
CZ-4 R/B 1.2 19:06:23 10° SSE 19:10:11 73° ENE 19:14:06 10° N
NOSS 2-1 (C) 4.1 19:09:56 10° NW 19:13:39 57° SW 19:18:44 10° SSE
CZ-4B R/B 3.3 19:08:24 10° SE 19:13:43 57° ENE 19:18:58 10° N
Cosmos 1766 Rocket 3.5 19:09:54 10° S 19:14:15 83° E 19:18:40 10° NNE
Resurs 01 Rocket 1.7 19:11:25 10° SSE 19:15:45 58° ENE 19:20:07 10° N
Meteor 2-17 Rocket 4.4 19:09:47 10° N 19:15:51 72° ENE 19:21:54 10° SSE
Helios 1A 2.8 19:12:33 10° NNE 19:16:38 73° ESE 19:20:40 10° S
USA 290 2.3 19:13:31 10° NNW 19:16:49 81° WSW 19:20:06 10° SSE
ADEOS 4.0 19:13:13 10° S 19:18:24 67° WSW 19:23:37 10° NNW
GEOS 3 Rocket 3.7 19:13:48 10° SE 19:19:03 84° SW 19:24:15 10° NW
USA 186 1.7 19:17:51 10° SSE 19:21:02 65° ENE 19:24:15 10° N
CZ-4B R/B 3.9 19:16:35 10° S 19:21:15 60° WSW 19:26:02 10° NNW
Cosmos 1814 Rocket 4.0 19:16:40 10° SSW 19:21:58 89° ESE 19:27:15 10° NNE
Cosmos 2360 Rocket 4.3 19:17:28 10° WSW 19:22:16 28° NW 19:27:06 10° NNE
PAYLOAD B 4.2 19:16:43 10° SSE 19:22:19 85° ENE 19:27:58 10° NNW
KORONAS-FOTON 3.8 19:19:04 10° NNW 19:22:47 79° W 19:26:28 10° S
Cosmos 1743 4.2 19:19:31 10° SW 19:22:51 37° WNW 19:26:12 10° N
MOS 1-B 4.5 19:17:59 10° SE 19:23:37 56° ENE 19:29:16 10° N
SPOT 5 3.9 19:22:14 18° ESE 19:24:26 25° ENE 19:28:04 10° N
Okean-O 3.7 19:23:05 18° ESE 19:25:11 27° ENE 19:28:53 10° N
USA 267 4.1 19:21:44 10° ENE 19:27:52 45° N 19:34:01 10° WNW
Cosmos 1408 Rocket 4.1 19:24:23 10° SSE 19:28:24 37° E 19:32:28 10° NNE
ISS -3.3 19:26:07 10° SW 19:29:18 41° SSE 19:30:44 25° E
SPOT 1/Viking Rocket 4.2 19:24:29 10° S 19:29:34 56° W 19:34:40 10° NNW
NOSS 3-3 (A) 4.3 19:25:09 10° S 19:29:50 32° ESE 19:35:10 10° NE
CZ-4B R/B 3.1 19:26:25 10° S 19:30:16 71° WSW 19:34:21 10° NNW
Kosmos-1783 4.2 19:30:04 10° WSW 19:31:58 27° NW 19:33:12 13° NNE
SL-08 R/B 3.9 19:28:17 10° N 19:33:11 65° WNW 19:38:03 10° SSW
Cosmos 2237 Rocket 2.2 19:29:13 10° S 19:34:40 54° ESE 19:40:08 10° NE
Aureole 3 Rocket 4.2 19:31:13 10° SSE 19:37:25 40° E 19:42:02 10° NNE
CSL-04 Rocket 3.6 19:32:08 10° SSE 19:37:29 78° ENE 19:42:48 10° NNW
Cosmos 2219 Rocket 3.9 19:34:22 10° WSW 19:39:32 35° NW 19:44:43 10° NNE
Cosmos 1674 4.5 19:37:33 10° NNW 19:40:27 28° W 19:43:20 10° SSW
Cosmos 1356 Rocket 3.8 19:38:37 10° NNW 19:42:47 65° W 19:46:54 10° S
Meteor 1-14 Rocket 4.4 19:37:54 10° SSW 19:43:26 76° WNW 19:49:01 10° N
Lacrosse 4 Rocket 4.2 19:41:40 10° WNW 19:44:26 17° WSW 19:47:11 10° SSW
Meteor 1-4 Rocket 4.1 19:43:29 10° NW 19:45:45 25° W 19:48:00 10° SSW
Meteor 1-11 Rocket 3.6 19:40:54 10° S 19:46:26 64° E 19:51:56 10° NNE
MOS 1 Rocket 4.3 19:45:38 25° ESE 19:47:41 35° ENE 19:52:28 10° N
CARTOSAT-1 3.9 19:46:34 10° S 19:50:47 64° W 19:55:01 10° NNW
ATLAS CENTAUR R/B 1.0 19:48:08 10° SSW 19:51:35 52° SE 19:54:53 12° NE
Cosmos 158 Rocket 3.8 19:46:51 10° S 19:51:37 57° ESE 19:56:23 10° NNE
NOSS 3-4 (A) 4.4 19:46:38 10° NW 19:52:52 44° NE 19:57:11 23° E
NOSS 3-4 (C) 4.4 19:46:44 10° NW 19:52:59 44° NE 19:57:18 23° E
Cosmos 1805 Rocket 3.8 19:52:47 29° SE 19:54:30 44° E 19:58:38 10° NNE
Cosmos 1428 Rocket 4.4 19:51:52 10° N 19:57:58 69° ENE 20:02:18 20° SSE
Cosmos 1733 3.1 19:55:22 10° SSW 19:58:47 71° W 20:02:13 10° N
In-Cosmos 22 4.4 19:54:57 10° NNW 20:00:40 76° W 20:06:00 11° S
USA 276 3.1 19:58:13 10° W 20:00:38 29° SSW 20:00:38 29° SSW
Cosmos 2369 Rocket 3.2 19:58:05 10° NNW 20:03:14 33° NE 20:05:12 26° E
Cosmos 1980 3.7 19:58:29 10° SSW 20:04:11 88° WNW 20:09:55 10° NNE
Meteor 1-21 4.4 20:02:35 10° N 20:08:14 53° ENE 20:10:23 35° SE
Sich 1 2.9 20:07:33 29° S 20:09:39 69° E 20:13:57 10° NNE
Cosmos 1943 Rocket 2.6 20:04:58 10° NW 20:10:24 59° WSW 20:14:05 20° S
BlueWalker 3 4.5 20:08:43 10° WSW 20:10:26 13° SW 20:12:10 10° SSW
Cosmos 1707 Rocket 4.4 20:07:05 10° N 20:11:05 33° ENE 20:11:05 33° ENE
DELTA 2 DEB (DPAF) 4.3 20:08:04 10° NNE 20:11:47 44° E 20:11:47 44° E
NOSS 0 Rocket 4.4 20:06:35 10° SW 20:12:47 65° NW 20:19:02 10° NNE
Cosmos 2298 Rocket 3.9 20:08:57 10° NNW 20:14:17 83° ENE 20:16:27 37° SSE
Terra 2.4 20:13:52 36° E 20:14:23 38° ENE 20:18:44 10° N
ACS3 Solar Sail 1.9 20:09:36 15° S 20:15:01 82° WSW 20:21:28 10° NNW
ERS-1 Rocket 3.3 20:14:04 40° ESE 20:15:07 46° ENE 20:19:56 10° N
Nadezhda 4 Rocket 4.3 20:09:05 10° NNW 20:15:17 68° W 20:21:33 10° S
Cosmos 2195 Rocket 4.3 20:09:20 10° N 20:15:29 82° E 20:19:12 26° SSE
Cosmos 2150 Rocket 3.9 20:10:48 10° NNW 20:15:59 85° ENE 20:17:56 39° SSE
USA 32 3.9 20:11:26 10° N 20:16:43 84° E 20:19:24 30° S
Cosmos 1570 Rocket 4.1 20:11:35 10° SSW 20:16:53 80° WNW 20:22:10 10° NNE
Cosmos 1975 3.6 20:18:58 36° NE 20:18:58 36° NE 20:21:41 10° NNE
OPS 6432 4.5 20:18:28 10° NW 20:21:15 64° NNW 20:21:15 64° NNW
Cosmos 1805 2.9 20:21:37 74° S 20:21:56 90° NNW 20:25:36 10° N
Cosmos 1315 Rocket 3.4 20:18:55 10° NNW 20:22:47 52° W 20:24:27 30° SSW
Cosmos 2026 Rocket 3.9 20:16:34 10° N 20:22:51 79° E 20:25:51 32° SSE
Cosmos 1092 Rocket 3.9 20:16:58 10° N 20:23:20 78° E 20:26:28 32° SSE
Ariane Rocket 3.7 20:24:21 35° ENE 20:24:44 35° ENE 20:29:20 10° N
Meteor 2-12 Rocket 4.4 20:20:28 10° N 20:26:38 70° ENE 20:28:55 40° SSE
Cosmos 836 Rocket 4.4 20:22:06 10° SSW 20:27:23 85° ESE 20:32:42 10° NNE
IRS-1A Rocket 4.3 20:26:27 43° SE 20:28:21 68° ENE 20:34:00 10° N
Okean 3 4.2 20:29:35 10° N 20:32:45 37° NE 20:32:45 37° NE
SL-16 R/B 2.3 20:35:16 50° ESE 20:35:16 50° ESE 20:40:33 10° NE
Okean O Rocket 2.8 20:35:02 21° SSW 20:37:30 40° W 20:41:42 10° NNW
Cosmos 1634 Rocket 3.9 20:36:32 36° S 20:39:16 72° E 20:45:35 10° NNE
Cosmos 1656 Rocket 3.6 20:34:39 10° NNW 20:40:20 71° ENE 20:41:19 58° ESE
USA 306 3.6 20:37:09 10° WNW 20:40:24 39° N 20:40:35 38° N
SL-14 R/B 3.6 20:36:43 10° NNW 20:40:27 58° W 20:40:36 58° WSW
USA 59 Rocket 2.9 20:40:32 10° W 20:42:40 13° WSW 20:45:04 10° SW
CZ-4 R/B 4.4 20:44:03 10° WSW 20:45:13 11° W 20:46:24 10° WNW
IRS-1C Rocket 4.0 20:45:02 62° SSE 20:45:56 84° ENE 20:51:15 10° NNW
Cosmos 773 Rocket 3.9 20:45:40 44° SSW 20:47:25 82° ESE 20:52:44 10° NNE
Cosmos 2278 Rocket 4.3 20:45:41 10° NW 20:49:50 21° W 20:53:59 10° SSW
Okean 1-7 4.3 20:46:00 10° N 20:48:39 29° NE 20:48:39 29° NE
Cosmos 2263 4.5 20:45:51 10° NNW 20:51:27 50° NE 20:51:55 49° ENE
Resurs 01 Rocket 4.2 20:49:35 10° SW 20:52:32 17° W 20:55:31 10° NW
Cosmos 2228 Rocket 3.1 20:50:59 10° N 20:55:20 80° NNW 20:55:20 80° NNW
Cosmos 1743 Rocket 4.4 20:56:20 34° SW 20:57:45 48° WNW 21:01:58 10° N
SPOT 3 Rocket 3.6 21:00:55 65° NE 21:00:55 65° NE 21:05:49 10° N
Okean-O 3.7 21:00:31 35° SW 21:01:24 39° W 21:05:33 10° NNW
SPOT 5 3.6 21:01:23 38° SW 21:02:16 43° W 21:06:33 10° NNW
Cosmos 2142 Rocket 4.4 21:02:36 61° E 21:02:36 61° E 21:08:36 10° NNE
NOSS 3-3 (C) 4.0 21:00:30 10° SW 21:05:59 72° NW 21:12:31 10° NE
ISS -1.2 21:02:41 10° W 21:03:42 18° W 21:03:42 18° W
USA 267 3.5 21:08:22 44° ENE 21:10:19 61° NNE 21:16:44 10° WNW
Cosmos 724 4.4 21:15:31 60° NE 21:15:31 60° NE 21:20:13 10° NE
Cosmos 2180 Rocket 4.5 21:17:01 68° E 21:17:01 68° E 21:23:14 10° NNE
Cosmos 2237 Rocket 3.9 21:14:00 10° WSW 21:19:00 32° NW 21:24:01 10° NNE
NOSS 3-3 (A) 4.3 21:14:48 10° WSW 21:20:16 59° NW 21:26:46 10° NE
Cosmos 2279 Rocket 3.9 21:19:59 69° SSW 21:20:49 86° WNW 21:27:05 10° N
Cosmos 1607 4.0 21:17:51 10° SW 21:24:19 83° NW 21:30:48 10° NE
Cosmos 2297 4.0 21:23:32 10° NW 21:28:59 60° WSW 21:28:59 60° WSW
ATLAS CENTAUR R/B 3.4 21:26:15 10° W 21:29:15 23° NW 21:29:51 22° NNW
Spot 2 Rocket 3.9 21:31:06 56° W 21:31:06 56° W 21:35:41 10° NNW
NOSS 3-4 (A) 3.9 21:37:22 10° NW 21:44:09 64° SW 21:44:37 63° SW
NOSS 3-4 (C) 3.9 21:37:29 10° NW 21:44:16 65° SW 21:44:43 63° SW
Cosmos 2369 Rocket 2.8 21:41:57 10° NW 21:46:58 52° W 21:46:58 52° W
Terra 3.4 21:52:34 29° W 21:52:34 29° W 21:56:10 10° NNW
ACS3 Solar Sail 4.2 21:56:17 10° WSW 22:00:02 16° W 22:03:48 10° NW
Ariane Rocket 4.3 22:04:30 34° WNW 22:04:30 34° WNW 22:08:18 10° NNW
Cosmos 2266 Rocket 4.4 22:03:58 10° NNW 22:09:40 59° WNW 22:09:40 59° WNW
SL-16 R/B 3.6 22:17:00 24° W 22:19:24 34° NW 22:24:33 10° NNE
ATLAS 2AS CENTAUR R/B 3.7 22:29:13 10° NW 22:35:33 36° NNE 22:36:31 35° NE
USA 267 4.1 22:55:43 40° WNW 22:55:43 40° WNW 22:59:50 10° WNW
Cosmos 1697 Rocket 4.3 22:48:43 10° NNW 22:52:28 28° NNE 22:52:28 28° NNE
Cosmos 2344 3.9 23:19:20 10° NW 23:27:14 85° WNW 23:27:14 85° WNW
Cosmos 1980 Rocket 3.8 23:48:54 10° NNW 23:52:13 30° N 23:52:13 30° N
